SWARM C

Last updated on Thu Oct 30 2025 00:03:36 GMT+0000 (Coordinated Universal Time)

1 39453U 13067C 25302.53935566 .00012143 00000+0 25531-3 0 9994 2 39453 87.3369 140.1127 0002747 84.6145 275.5427 15.45177135670527
UTC large
Height (km)
Speed (km/s)
/
Latitude / Longitude
Inclination (degrees)
Orbital Period (minutes)
Azimuth
Elevation
Range (km)
Doppler Factor

Next 0 passes for location: London (51.5072 / 0.1276)

Sorry there are no passes over London.